This demonstration page uses our WeatherBlox Daily Observations layout. Learn more.

Left ArrowRight Arrow

39.01783, -85.05884

Hourly Observations for July 31, 2016

Temp ( °F °C ) Dew Point ( °F °C ) Humidity (%) Winds ( mph kmh ) Pressure ( in mb ) Visibility ( mi km ) Precip ( " mm )
12:52 am 00:52 Mostly Cloudy 74 23.3 73 22.8 97 97 Calm 29.96 1014 9 14 0.00 0.00
1:52 am 01:52 Clear 73 22.8 72 22.2 96 96 Calm 29.96 1015 7 11 0.00 0.00
2:52 am 02:52 Partly Cloudy 72 22.2 72 22.2 100 100 SW 3 6 29.95 1014 7 11 0.00 0.00
3:52 am 03:52 Clear 71 21.7 70 21.1 96 96 W 5 7 29.94 1014 7 11 0.00 0.00
4:52 am 04:52 Clear 71 21.7 70 21.1 96 96 WSW 5 7 29.96 1015 8 13 0.00 0.00
5:52 am 05:52 Clear 70 21.1 69 20.6 97 97 W 5 7 29.96 1015 7 11 0.00 0.00
6:52 am 06:52 Mostly Sunny 69 20.6 68 20 96 96 SW 3 6 29.98 1015 8 13 0.00 0.00
7:52 am 07:52 Mostly Sunny 71 21.7 69 20.6 94 94 Calm 30.00 1016 8 13 0.00 0.00
8:52 am 08:52 Mostly Sunny 75 23.9 70 21.1 84 84 WSW 3 6 30.01 1016 10 16 0.00 0.00
9:52 am 09:52 Mostly Sunny 78 25.6 69 20.6 74 74 VRB 3 6 30.01 1016 10 16 0.00 0.00
10:52 am 10:52 Partly Cloudy 80 26.7 69 20.6 69 69 W 8 13 30.01 1016 10 16 0.00 0.00
11:52 am 11:52 Mostly Cloudy 81 27.2 67 19.4 62 62 Calm 30.02 1017 10 16 0.00 0.00
12:52 pm 12:52 Mostly Cloudy 83 28.3 68 20 61 61 W 6 9 30.02 1017 10 16 0.00 0.00
1:52 pm 13:52 Mostly Cloudy 84 28.9 67 19.4 57 57 SW 7 11 30.01 1016 10 16 0.00 0.00
2:52 pm 14:52 Mostly Cloudy 85 29.4 67 19.4 55 55 W 7 11 30.00 1016 10 16 0.00 0.00
3:52 pm 15:52 Mostly Cloudy 85 29.4 65 18.3 51 51 W 5 7 29.99 1016 10 16 0.00 0.00
4:52 pm 16:52 Mostly Cloudy 85 29.4 65 18.3 51 51 WSW 7 11 29.98 1015 10 16 0.00 0.00
5:52 pm 17:52 Mostly Cloudy 86 30 68 20 55 55 WSW 9 15 29.97 1015 10 16 0.00 0.00
6:52 pm 18:52 Mostly Cloudy 83 28.3 66 18.9 57 57 W 10 17 29.97 1015 10 16 0.00 0.00
7:52 pm 19:52 Mostly Cloudy 82 27.8 67 19.4 60 60 W 3 6 29.98 1015 10 16 0.00 0.00
8:52 pm 20:52 Mostly Cloudy 80 26.7 67 19.4 64 64 W 3 6 29.99 1016 10 16 0.00 0.00
9:52 pm 21:52 Mostly Cloudy 76 24.4 68 20 77 77 Calm 30.00 1016 10 16 0.00 0.00
10:52 pm 22:52 Mostly Clear 74 23.3 68 20 82 82 Calm 30.02 1017 10 16 0.00 0.00
11:52 pm 23:52 Partly Cloudy 74 23.3 69 20.6 85 85 Calm 30.03 1017 10 16 0.00 0.00

Powered by AerisWeather